VE3WXA Weather Reports


time (UTC)temp
F
wind
direction
speed
knots
gust
knots
rain 1hr
in
rain 24hr
in
rain mn
in
humidity
%
barometer
mb
20260503194202 60 260 1.7 5.2 0.00 0.00 0.00 46 1008.2
20260503193703 60 269 2.6 5.2 0.00 0.00 0.00 46 1008.3
20260503193202 60 308 1.7 5.2 0.00 0.00 0.00 46 1008.5
20260503192702 60 24 1.7 6.1 0.00 0.00 0.00 45 1008.5
20260503192203 61 269 1.7 6.1 0.00 0.00 0.00 45 1008.6
20260503191702 61 5 1.7 6.1 0.00 0.00 0.00 45 1008.4
20260503191203 61 284 1.7 6.1 0.00 0.00 0.00 46 1008.4
20260503190702 61 344 1.7 6.1 0.00 0.00 0.00 46 1008.5
20260503190444 61 319 1.7 8.7 0.00 0.00 0.00 45 1008.5
20260503185702 60 200 1.7 8.7 0.00 0.00 0.00 46 1008.5
20260503185201 60 310 1.7 8.7 0.00 0.00 0.00 46 1008.6
20260503184944 60 0 1.7 8.7 0.00 0.00 0.00 46 1008.9
20260503184202 61 273 1.7 5.2 0.00 0.00 0.00 46 1008.9
20260503183703 61 308 1.7 4.3 0.00 0.00 0.00 47 1008.8
20260503183445 61 289 1.7 4.3 0.00 0.00 0.00 46 1008.7
20260503182947 61 320 1.7 5.2 0.00 0.00 0.00 47 1008.8
20260503182202 60 124 1.7 5.2 0.00 0.00 0.00 47 1008.8
20260503181703 60 347 1.7 4.3 0.00 0.00 0.00 48 1009.0
20260503181450 60 319 1.7 7.0 0.00 0.00 0.00 47 1009.1
20260503180948 60 342 1.7 7.0 0.00 0.00 0.00 47 1009.1
20260503180202 60 208 1.7 7.0 0.00 0.00 0.00 48 1009.2
20260503175702 59 254 3.5 7.8 0.00 0.00 0.00 50 1009.2
20260503175202 59 183 3.5 7.8 0.00 0.00 0.00 50 1009.4
20260503174702 59 137 1.7 7.0 0.00 0.00 0.00 48 1009.5
20260503174201 59 283 2.6 7.8 0.00 0.00 0.00 47 1009.7
20260503173702 60 282 2.6 7.8 0.00 0.00 0.00 47 1009.7
20260503173202 60 304 2.6 6.1 0.00 0.00 0.00 47 1009.8
20260503172701 60 277 1.7 5.2 0.00 0.00 0.00 46 1009.5
20260503172237 60 287 1.7 6.1 0.00 0.00 0.00 48 1010.1
20260503172226 60 297 1.7 6.1 0.00 0.00 0.00 46 1010.0
20260503171203 60 354 2.6 7.8 0.00 0.00 0.00 47 1010.0
20260503170703 61 231 2.6 9.6 0.00 0.00 0.00 46 1010.0
20260503170203 62 227 2.6 9.6 0.00 0.00 0.00 45 1009.3
20260503160202 62 276 1.7 7.0 0.00 0.00 0.00 46 1010.0
20260503150702 59 207 2.6 7.8 0.00 0.00 0.00 49 1009.9
20260503150202 59 226 1.7 7.8 0.00 0.00 0.00 48 1009.9
20260503131202 48 214 3.5 7.8 0.00 0.00 0.00 61 1010.9
20260503130702 48 216 3.5 7.8 0.00 0.00 0.00 62 1011.1
20260503130202 47 199 3.5 7.8 0.00 0.00 0.00 62 1011.0
20260503120202 40 234 3.5 7.8 0.00 0.00 0.00 72 1012.5
20260503110701 38 0 0.9 3.5 0.00 0.00 0.00 73 1012.5
20260503110202 38 237 0.9 3.5 0.00 0.00 0.00 74 1012.5
20260503100202 36 0 0.0 1.7 0.00 0.00 0.00 79 1012.8
20260503090202 33 0 0.0 2.6 0.00 0.00 0.00 84 1013.6
20260503081203 35 0 0.0 2.6 0.00 0.00 0.00 81 1013.7
20260503080703 35 273 0.0 2.6 0.00 0.00 0.00 81 1013.7
20260503080202 35 302 0.0 1.7 0.00 0.00 0.00 81 1013.8
20260503072202 36 182 0.9 3.5 0.00 0.00 0.00 78 1013.6
20260503071702 36 172 0.9 3.5 0.00 0.00 0.00 77 1013.5
20260503071202 37 229 1.7 5.2 0.00 0.00 0.00 76 1013.5
20260503070703 37 224 1.7 6.1 0.00 0.00 0.00 75 1013.4
20260503070202 38 194 2.6 6.1 0.00 0.00 0.00 74 1013.3
20260503060203 36 213 1.7 6.1 0.00 0.00 0.00 75 1013.8
20260503054701 36 199 1.7 5.2 0.00 0.00 0.00 76 1014.1
20260503054201 36 203 1.7 5.2 0.00 0.00 0.00 76 1014.1
20260503053702 36 216 1.7 5.2 0.00 0.00 0.00 75 1014.1
20260503053448 36 223 1.7 5.2 0.00 0.00 0.00 75 1014.2
20260503052701 36 227 1.7 4.3 0.00 0.00 0.00 75 1014.3
20260503052202 36 161 1.7 5.2 0.00 0.00 0.00 75 1014.2
20260503051702 36 242 1.7 5.2 0.00 0.00 0.00 75 1014.3
20260503051202 36 221 1.7 3.5 0.00 0.00 0.00 74 1014.3
20260503050702 36 215 1.7 3.5 0.00 0.00 0.00 74 1014.3
20260503050202 36 236 1.7 3.5 0.00 0.00 0.00 74 1014.4
20260503045702 36 187 1.7 3.5 0.00 0.00 0.00 74 1014.4
20260503045448 36 219 1.7 4.3 0.00 0.00 0.00 73 1014.4
20260503044702 36 212 1.7 4.3 0.00 0.00 0.00 73 1014.5
20260503044450 36 220 1.7 4.3 0.00 0.00 0.00 73 1014.5
20260503043702 36 212 1.7 3.5 0.00 0.00 0.00 73 1014.5
20260503043202 36 233 0.9 4.3 0.00 0.00 0.00 73 1014.6
20260503042702 36 215 0.9 4.3 0.00 0.00 0.00 73 1014.6
20260503042202 36 205 1.7 3.5 0.00 0.00 0.00 73 1014.7
20260503041702 37 223 1.7 3.5 0.00 0.00 0.00 72 1014.6
20260503041203 37 229 1.7 3.5 0.00 0.00 0.00 72 1014.7
20260503040703 37 211 1.7 3.5 0.00 0.00 0.00 72 1014.7
20260503040202 37 242 1.7 3.5 0.00 0.00 0.00 72 1014.7
20260503035701 37 222 1.7 4.3 0.00 0.00 0.00 72 1014.7
20260503035202 36 195 0.9 4.3 0.00 0.00 0.00 72 1014.7
20260503034702 36 240 0.9 3.5 0.00 0.00 0.00 73 1014.8
20260503034202 36 219 0.9 3.5 0.00 0.00 0.00 73 1014.8
20260503033702 36 228 0.9 2.6 0.00 0.00 0.00 73 1015.0
20260503033202 36 247 0.0 2.6 0.00 0.00 0.00 73 1015.1
20260503032702 36 0 0.0 3.5 0.00 0.00 0.00 73 1015.1
20260503032201 36 250 0.9 3.5 0.00 0.00 0.00 73 1015.1
20260503031948 36 0 0.0 1.7 0.00 0.00 0.00 74 1015.1
20260503031201 36 0 0.0 1.7 0.00 0.00 0.00 74 1015.3
20260503030702 36 0 0.0 1.7 0.00 0.00 0.00 73 1015.3
20260503030450 36 0 0.0 1.7 0.00 0.00 0.00 73 1015.3
20260503025701 36 0 0.0 1.7 0.00 0.00 0.00 73 1015.5
20260503025450 36 217 0.0 0.9 0.00 0.00 0.00 73 1015.5
20260503024702 36 0 0.0 1.7 0.00 0.00 0.00 73 1015.5
20260503024449 37 0 0.0 2.6 0.00 0.00 0.00 73 1015.5
20260503023702 37 122 0.0 2.6 0.00 0.00 0.00 72 1015.6
20260503023202 37 0 0.0 1.7 0.00 0.00 0.00 72 1015.7
20260503022703 37 0 0.0 2.6 0.00 0.00 0.00 72 1015.6
20260503022201 37 0 0.0 2.6 0.00 0.00 0.00 72 1015.6
20260503021701 37 0 0.0 2.6 0.00 0.00 0.00 72 1015.7
20260503021201 37 0 0.0 1.7 0.00 0.00 0.00 72 1015.7
20260503020701 37 0 0.9 3.5 0.00 0.00 0.00 71 1015.6
20260503020242 37 229 0.9 3.5 0.00 0.00 0.00 71 1015.5
20260503020227 38 0 0.9 3.5 0.00 0.00 0.00 71 1015.5
20260503015205 37 227 0.0 3.5 0.00 0.00 0.00 72 1015.6
20260503014705 37 243 0.0 2.6 0.00 0.00 0.00 73 1015.8
20260503014444 37 217 0.0 1.7 0.00 0.00 0.00 72 1015.7
20260503013702 38 0 0.0 2.6 0.00 0.00 0.00 72 1015.7
20260503013202 38 0 0.9 3.5 0.00 0.00 0.00 71 1015.6
20260503012947 38 0 0.0 3.5 0.00 0.00 0.00 71 1015.6
20260503012202 38 0 0.0 1.7 0.00 0.00 0.00 72 1015.8
20260503012019 39 0 0.0 1.7 0.00 0.00 0.00 69 1015.8
20260503012014 38 0 0.0 1.7 0.00 0.00 0.00 71 1015.8
20260503010702 40 0 0.0 1.7 0.00 0.00 0.00 68 1015.8
20260503010202 40 0 0.9 2.6 0.00 0.00 0.00 67 1015.6
20260503005702 41 248 0.9 2.6 0.00 0.00 0.00 64 1015.4
20260503005202 41 230 0.9 2.6 0.00 0.00 0.00 64 1015.4
20260503004703 40 224 0.0 3.5 0.00 0.00 0.00 63 1015.5
20260503004443 41 243 0.0 3.5 0.00 0.00 0.00 63 1015.7
20260503003703 41 0 0.0 0.9 0.00 0.00 0.00 62 1015.7
20260503003202 42 0 0.0 0.9 0.00 0.00 0.00 60 1015.7
20260503002944 42 0 0.0 0.0 0.00 0.00 0.00 59 1015.7
20260503002201 43 0 0.0 0.9 0.00 0.00 0.00 58 1015.6
20260503001702 44 0 0.0 0.9 0.00 0.00 0.00 57 1015.6
20260503001204 44 0 0.0 2.6 0.00 0.00 0.00 56 1015.6
20260503000945 45 0 0.0 2.6 0.00 0.00 0.00 55 1015.4
20260503000203 45 263 0.9 1.7 0.00 0.00 0.00 54 1015.4
20260502235702 46 0 0.9 2.6 0.00 0.00 0.00 54 1015.3
20260502235201 46 0 0.9 2.6 0.00 0.00 0.00 53 1015.2
20260502234944 46 297 0.9 2.6 0.00 0.00 0.00 52 1015.2
20260502234202 46 245 0.9 2.6 0.00 0.00 0.00 53 1015.2
20260502233702 46 294 0.9 3.5 0.00 0.00 0.00 52 1015.3
20260502233202 46 0 0.9 3.5 0.00 0.00 0.00 52 1015.2
20260502232701 46 0 0.9 3.5 0.00 0.00 0.00 53 1015.3
20260502232203 46 128 0.9 4.3 0.00 0.00 0.00 51 1015.4
20260502231702 46 294 1.7 4.3 0.00 0.00 0.00 52 1015.3
20260502231201 46 292 1.7 3.5 0.00 0.00 0.00 51 1015.2
20260502230701 46 303 0.9 3.5 0.00 0.00 0.00 52 1015.2
20260502230202 46 0 0.9 4.3 0.00 0.00 0.00 51 1015.3
20260502225701 46 333 0.9 4.3 0.00 0.00 0.00 51 1015.1
20260502225445 46 201 0.9 4.3 0.00 0.00 0.00 52 1015.0
20260502224702 46 0 0.9 4.3 0.00 0.00 0.00 51 1015.2
20260502224202 46 294 0.9 4.3 0.00 0.00 0.00 52 1015.2
20260502223739 46 312 1.7 5.2 0.00 0.00 0.00 51 1015.2
20260502223729 46 284 1.7 5.2 0.00 0.00 0.00 52 1015.1
20260502222701 47 304 1.7 4.3 0.00 0.00 0.00 51 1015.2
20260502222201 47 297 1.7 5.2 0.00 0.00 0.00 50 1015.1
20260502221701 47 288 1.7 5.2 0.00 0.00 0.00 49 1015.0
20260502221201 47 68 1.7 4.3 0.00 0.00 0.00 51 1015.0
20260502220702 47 336 1.7 4.3 0.00 0.00 0.00 49 1015.0
20260502220201 46 0 1.7 5.2 0.00 0.00 0.00 49 1015.2
20260502215701 47 295 1.7 5.2 0.00 0.00 0.00 50 1015.2
20260502215201 47 280 1.7 3.5 0.00 0.00 0.00 49 1015.2
20260502214701 47 285 1.7 4.3 0.00 0.00 0.00 47 1015.3
20260502214201 47 352 1.7 5.2 0.00 0.00 0.00 47 1015.3
20260502214022 46 239 1.7 6.1 0.00 0.00 0.00 47 1015.1
20260502213725 46 352 1.7 6.1 0.00 0.00 0.00 48 1015.1
20260502212736 47 294 1.7 5.2 0.00 0.00 0.00 47 1015.1
20260502212726 47 277 1.7 6.1 0.00 0.00 0.00 46 1015.0
20260502211701 47 252 1.7 3.5 0.00 0.00 0.00 48 1015.1
20260502211201 47 46 1.7 3.5 0.00 0.00 0.00 50 1015.2
20260502210701 47 289 1.7 7.0 0.00 0.00 0.00 50 1015.0
20260502210202 47 294 1.7 7.0 0.00 0.00 0.00 47 1015.0
20260502205701 47 311 1.7 5.2 0.00 0.00 0.00 47 1014.9
20260502205201 47 294 1.7 5.2 0.00 0.00 0.00 48 1014.9
20260502204701 47 296 1.7 6.1 0.00 0.00 0.00 48 1014.9
20260502204201 47 42 2.6 6.1 0.00 0.00 0.00 45 1014.9
20260502203701 47 344 2.6 6.1 0.00 0.00 0.00 49 1015.0
20260502203200 47 330 2.6 7.0 0.00 0.00 0.00 49 1015.0
20260502202701 46 288 2.6 7.0 0.00 0.00 0.00 51 1015.0
20260502202200 46 280 1.7 4.3 0.00 0.00 0.00 51 1015.0
20260502201701 46 301 1.7 5.2 0.00 0.00 0.00 50 1015.3
20260502201201 46 273 2.6 7.0 0.00 0.00 0.00 49 1015.3
20260502200950 46 283 2.6 7.0 0.00 0.00 0.00 50 1015.3
20260502200201 46 293 1.7 5.2 0.00 0.00 0.00 51 1015.3
20260502195701 46 287 1.7 6.1 0.00 0.00 0.00 50 1015.4
20260502195201 46 273 1.7 6.1 0.00 0.00 0.00 49 1015.6
20260502194701 46 171 1.7 5.2 0.00 0.00 0.00 48 1015.5